Location: Croagnes
(43.9363°N, 5.3265°E)
Time: 22:28:31
(UTC+00:00)

Meteor 1-16 Rocket - Pass Details

Date: 06 October 2020
Orbit: 790 x 908 km, 81.2° (Epoch: 22 October)

Event Time Altitude Azimuth Distance (km) Brightness Sun altitude
Rises 18:15:33 0° 154° (SSE) 3,518 7.1 -12.6°
Reaches altitude 10° 18:18:23 10° 142° (SE) 2,575 6.3 -13.1°
Maximum altitude 18:23:09 26° 88° (E) 1,678 5.2 -14.0°
Drops below altitude 10° 18:27:51 10° 34° (NNE) 2,546 6.4 -14.8°
Sets 18:30:38 0° 22° (NNE) 3,471 7.2 -15.3°
